Location: Waco, TX
(31.5480°N, 97.1670°W)
Time: 14:50:08
(UTC-05:00)

ISS - All Passes

Search period start: 29 July 2021 00:00
Search period end: 08 August 2021 00:00
Orbit: 419 x 421 km, 51.6° (Epoch: 29 July)

Date Brightness Start Highest point End Pass type
(mag) Time Alt. Az. Time Alt. Az. Time Alt. Az.
29 Jul - 00:49:35 10° WNW 00:52:16 22° SW 00:54:56 10° S night (unlit)
29 Jul - 15:51:57 10° SW 15:55:16 58° NW 15:58:37 10° NE daylight
29 Jul - 22:25:56 10° N 22:28:06 16° NE 22:30:14 10° ENE visible
30 Jul - 00:01:50 10° WNW 00:05:03 43° SW 00:08:16 10° SSE visible
30 Jul - 15:04:38 10° SW 15:07:58 69° SE 15:11:19 10° NE daylight
30 Jul - 16:43:42 10° WNW 16:45:06 12° NNW 16:46:30 10° N daylight
30 Jul - 21:40:02 10° NNE 21:40:33 10° NNE 21:41:04 10° NE visible
30 Jul - 23:14:25 10° NW 23:17:47 90° WSW 23:21:08 10° SE visible
31 Jul - 14:17:39 10° SSW 14:20:43 33° SE 14:23:48 10° ENE daylight
31 Jul - 15:55:07 10° W 15:57:35 19° NW 16:00:03 10° N daylight
31 Jul - 22:27:12 10° NNW 22:30:27 45° NE 22:33:41 10° ESE visible
01 Aug - 00:05:42 10° WSW 00:06:55 12° SW 00:08:07 10° SSW visible
01 Aug - 13:31:10 10° S 13:33:31 18° SE 13:35:52 10° E daylight
01 Aug - 15:07:07 10° WSW 15:10:08 30° NW 15:13:10 10° NNE daylight
01 Aug - 21:40:10 10° NNW 21:43:03 25° NE 21:45:55 10° E visible
01 Aug - 23:17:05 10° WNW 23:19:45 22° SW 23:22:24 10° S visible
02 Aug - 14:19:26 10° WSW 14:22:45 56° NW 14:26:05 10° NE daylight
02 Aug - 20:53:23 10° N 20:55:34 16° NE 20:57:45 10° ENE visible
02 Aug - 22:29:19 10° WNW 22:32:32 42° SW 22:35:43 10° SSE visible
03 Aug - 13:32:05 10° SW 13:35:25 71° SE 13:38:46 10° NE daylight
03 Aug - 15:11:13 10° NW 15:12:34 12° NNW 15:13:54 10° N daylight
03 Aug - 20:07:21 10° NNE 20:08:01 10° NNE 20:08:40 10° NE daylight
03 Aug - 21:41:51 10° NW 21:45:14 88° SW 21:48:35 10° SE visible
04 Aug - 12:45:04 10° SSW 12:48:09 34° SE 12:51:15 10° ENE daylight
04 Aug - 14:22:35 10° W 14:25:01 18° NW 14:27:28 10° N daylight
04 Aug - 20:54:37 10° NNW 20:57:53 46° NE 21:01:08 10° ESE visible
04 Aug - 22:33:14 10° WSW 22:34:20 11° SW 22:35:27 10° SW visible
05 Aug - 11:58:33 10° S 12:00:55 18° SE 12:03:18 10° E daylight
05 Aug - 13:34:32 10° WSW 13:37:33 30° NW 13:40:34 10° NNE daylight
05 Aug - 20:07:34 10° NNW 20:10:27 26° NE 20:13:21 10° E daylight
05 Aug - 21:44:31 10° WNW 21:47:09 21° SW 21:49:46 10° S visible
06 Aug - 12:46:50 10° WSW 12:50:08 55° NW 12:53:28 10° NE daylight
06 Aug - 19:20:45 10° N 19:22:58 16° NE 19:25:10 10° ENE daylight
06 Aug - 20:56:42 10° WNW 20:59:54 41° SW 21:03:05 10° SSE visible
07 Aug - 11:59:27 10° SW 12:02:47 73° SE 12:06:09 10° NE daylight
07 Aug - 13:38:39 10° NW 13:39:56 12° NNW 13:41:13 10° N daylight
07 Aug - 18:34:37 10° NNE 18:35:23 11° NNE 18:36:09 10° NE daylight
07 Aug - 20:09:14 10° NW 20:12:36 86° SW 20:15:58 10° SE daylight
